Clinton, MO

3:44 AM CST on November 18, 2019 (GMT -0600)
Clinton Memorial

Weather History for KGLY - October, 2019

Change the Weather History Date:

Wednesday, October 23, 2019

  Actual Average (WUND) Record (WUND)
Temperature  
Mean Temperature 56 °F -  
Max Temperature 71 °F - - (-1)
Min Temperature 42 °F - - (-1)
Degree Days  
Heating Degree Days 8    
Growing Degree Days 6 (Base 50)    
Moisture  
Dew Point 40 °F    
Average Humidity 54    
Maximum Humidity 76    
Minimum Humidity 31    
Precipitation  
Precipitation 0.00 in - - ()
Sea Level Pressure  
Sea Level Pressure 29.97 in    
Wind  
Wind Speed 7 mph (WSW)    
Max Wind Speed 24 mph    
Max Gust Speed 33 mph    
Visibility 10 miles    
Events      
Averages and records for this station are not official NWS values.
T = Trace of Precipitation, MM = Missing Value Source: NWS Daily Summary

Daily Weather History Graph

Daily Weather History Graph

Search for Another Location

Airport or City:

Astronomy

Oct. 23, 2019 Rise Set
Actual Time 7:31 AM CDT 6:26 PM CDT
Civil Twilight 7:04 AM CDT 6:53 PM CDT
Nautical Twilight 6:33 AM CDT 7:23 PM CDT
Astronomical Twilight 6:02 AM CDT 7:54 PM CDT
Moon 1:56 AM CDT (10/23) 4:11 PM CDT (10/23)
Length of Visible Light 11h 48m
Length of Day
10h 54m
Waning Crescent, 26% of the Moon is Illuminated
Oct 23
Waning Crescent
Oct 27
New
Nov 4
First Quarter
Nov 12
Full
Nov 19
Last Quarter

Hourly Weather History & Observations

Time (CDT) Temp. Windchill Dew Point Humidity Pressure Visibility Wind Dir Wind Speed Gust Speed Precip Events Conditions
12:15 AM 44.6 °F - 35.6 °F 71% 29.99 in 10.0 mi Calm Calm - N/A   Clear
12:35 AM 42.8 °F - 35.6 °F 76% 29.99 in 10.0 mi Calm Calm - N/A   Scattered Clouds
12:55 AM 42.8 °F - 35.6 °F 76% 29.98 in 10.0 mi Calm Calm - N/A   Overcast
1:15 AM 42.8 °F - 35.6 °F 76% 29.97 in 10.0 mi Calm Calm - N/A   Scattered Clouds
2:35 AM 44.6 °F 40.7 °F 35.6 °F 71% 29.96 in 10.0 mi SSW 6.9 mph - N/A   Clear
2:55 AM 44.6 °F 41.4 °F 35.6 °F 71% 29.96 in 10.0 mi SSW 5.8 mph - N/A   Clear
3:15 AM 44.6 °F 41.4 °F 35.6 °F 71% 29.96 in 10.0 mi SSW 5.8 mph - N/A   Clear
3:35 AM 46.4 °F 42.4 °F 35.6 °F 66% 29.96 in 10.0 mi SSW 8.1 mph - N/A   Clear
3:55 AM 46.4 °F 42.4 °F 35.6 °F 66% 29.95 in 10.0 mi SSW 8.1 mph - N/A   Clear
4:15 AM 46.4 °F 42.9 °F 35.6 °F 66% 29.95 in 10.0 mi SW 6.9 mph - N/A   Clear
4:35 AM 46.4 °F 42.9 °F 35.6 °F 66% 29.94 in 10.0 mi SW 6.9 mph - N/A   Clear
4:55 AM 48.2 °F - 35.6 °F 62% 29.95 in 10.0 mi SW 6.9 mph - N/A   Clear
5:15 AM 48.2 °F - 35.6 °F 62% 29.96 in 10.0 mi SW 6.9 mph - N/A   Clear
5:35 AM 46.4 °F 42.9 °F 35.6 °F 66% 29.95 in 10.0 mi SW 6.9 mph - N/A   Clear
5:55 AM 46.4 °F 42.9 °F 35.6 °F 66% 29.96 in 10.0 mi SW 6.9 mph - N/A   Clear
6:15 AM 48.2 °F - 35.6 °F 62% 29.95 in 10.0 mi SSW 6.9 mph - N/A   Clear
6:35 AM 48.2 °F - 37.4 °F 66% 29.95 in 10.0 mi SW 5.8 mph - N/A   Clear
6:55 AM 48.2 °F - 37.4 °F 66% 29.96 in 10.0 mi SW 3.5 mph - N/A   Clear
7:15 AM 50.0 °F - 37.4 °F 62% 29.95 in 10.0 mi SW 6.9 mph - N/A   Clear
8:15 AM 51.8 °F - 37.4 °F 58% 29.96 in 10.0 mi SW 6.9 mph - N/A   Partly Cloudy
9:15 AM 55.4 °F - 39.2 °F 54% 29.97 in 10.0 mi SW 15.0 mph 19.6 mph N/A   Clear
9:35 AM 57.2 °F - 39.2 °F 51% 29.97 in 10.0 mi SW 16.1 mph 23.0 mph N/A   Clear
9:55 AM 59.0 °F - 39.2 °F 48% 29.97 in 10.0 mi SW 12.7 mph 20.7 mph N/A   Clear
10:15 AM 59.0 °F - 39.2 °F 48% 29.97 in 10.0 mi WSW 15.0 mph 23.0 mph N/A   Clear
10:35 AM 60.8 °F - 39.2 °F 45% 29.97 in 10.0 mi SW 11.5 mph 18.4 mph N/A   Clear
10:55 AM 62.6 °F - 39.2 °F 42% 29.96 in 10.0 mi WSW 15.0 mph 21.9 mph N/A   Clear
11:15 AM 64.4 °F - 39.2 °F 40% 29.95 in 10.0 mi SW 12.7 mph 23.0 mph N/A   Clear
11:35 AM 66.2 °F - 39.2 °F 37% 29.94 in 10.0 mi SW 17.3 mph 28.8 mph N/A   Clear
11:55 AM 66.2 °F - 39.2 °F 37% 29.93 in 10.0 mi SW 11.5 mph 25.3 mph N/A   Clear
12:35 PM 66.2 °F - 39.2 °F 37% 29.91 in 10.0 mi SW 12.7 mph 24.2 mph N/A   Clear
12:55 PM 68.0 °F - 39.2 °F 35% 29.91 in 10.0 mi SW 15.0 mph 28.8 mph N/A   Clear
1:15 PM 71.6 °F - 39.2 °F 31% 29.90 in 10.0 mi WSW 17.3 mph 31.1 mph N/A   Clear
1:55 PM 71.6 °F - 41.0 °F 33% 29.89 in 10.0 mi SW 24.2 mph 33.4 mph N/A   Clear
2:15 PM 71.6 °F - 41.0 °F 33% 29.88 in 10.0 mi SW 20.7 mph 32.2 mph N/A   Clear
2:35 PM 71.6 °F - 41.0 °F 33% 29.88 in 10.0 mi SW 23.0 mph 29.9 mph N/A   Clear
2:55 PM 71.6 °F - 41.0 °F 33% 29.87 in 10.0 mi WSW 20.7 mph 27.6 mph N/A   Clear
3:15 PM 71.6 °F - 41.0 °F 33% 29.88 in 10.0 mi WSW 15.0 mph 25.3 mph N/A   Clear
3:35 PM 71.6 °F - 41.0 °F 33% 29.89 in 10.0 mi WSW 20.7 mph 31.1 mph N/A   Clear
4:15 PM 71.6 °F - 42.8 °F 35% 29.90 in 10.0 mi WSW 15.0 mph 23.0 mph N/A   Clear
4:55 PM 71.6 °F - 44.6 °F 38% 29.90 in 10.0 mi WSW 15.0 mph 24.2 mph N/A   Clear
5:15 PM 69.8 °F - 44.6 °F 40% 29.91 in 10.0 mi WSW 12.7 mph 17.3 mph N/A   Clear
5:35 PM 68.0 °F - 44.6 °F 43% 29.92 in 10.0 mi WSW 9.2 mph - N/A   Scattered Clouds
6:15 PM 66.2 °F - 46.4 °F 49% 29.94 in 10.0 mi Calm Calm - N/A   Mostly Cloudy
6:35 PM 62.6 °F - 46.4 °F 55% 29.95 in 10.0 mi Calm Calm - N/A   Partly Cloudy
6:55 PM 60.8 °F - 46.4 °F 59% 29.97 in 10.0 mi Calm Calm - N/A   Clear
7:15 PM 59.0 °F - 44.6 °F 59% 29.99 in 10.0 mi WNW 6.9 mph - N/A   Mostly Cloudy
7:35 PM 62.6 °F - 42.8 °F 48% 30.00 in 10.0 mi NW 5.8 mph - N/A   Overcast
7:55 PM 59.0 °F - 41.0 °F 51% 30.01 in 10.0 mi Calm Calm - N/A   Mostly Cloudy
8:15 PM 59.0 °F - 41.0 °F 51% 30.02 in 10.0 mi Calm Calm - N/A   Mostly Cloudy
8:35 PM 59.0 °F - 41.0 °F 51% 30.04 in 10.0 mi North 5.8 mph - N/A   Overcast
8:55 PM 59.0 °F - 42.8 °F 55% 30.05 in 10.0 mi Calm Calm - N/A   Overcast
9:15 PM 57.2 °F - 44.6 °F 63% 30.05 in 10.0 mi North 4.6 mph - N/A   Overcast
9:35 PM 55.4 °F - 44.6 °F 67% 30.07 in 10.0 mi North 6.9 mph - N/A   Mostly Cloudy
9:55 PM 55.4 °F - 44.6 °F 67% 30.09 in 10.0 mi NNE 5.8 mph - N/A   Overcast
10:15 PM 55.4 °F - 44.6 °F 67% 30.10 in 10.0 mi NNE 4.6 mph - N/A   Overcast
11:15 PM 53.6 °F - 41.0 °F 62% 30.13 in 10.0 mi North 6.9 mph - N/A   Overcast
11:35 PM 50.0 °F - 41.0 °F 71% 30.14 in 10.0 mi NNE 6.9 mph - N/A   Overcast